Location: Krasnoyarskiy Pitomnik
(51.1333°N, 71.6167°E)
Time: 18:07:23
(UTC+00:00)

SR - Visible Passes

Search period start: 19 April 2024 00:00
Search period end: 29 April 2024 00:00
Orbit: 577 x 863 km, 66.7° (Epoch: 18 April)

Date Brightness Start Highest point End Pass type
(mag) Time Alt. Az. Time Alt. Az. Time Alt. Az.
19 Apr ? 20:36:26 33° SE 20:36:59 34° ESE 20:41:37 10° NE visible
19 Apr ? 22:15:39 24° WSW 22:18:47 53° NW 22:23:43 10° NNE visible
20 Apr ? 19:45:37 18° ESE 19:45:37 18° ESE 19:48:46 10° ENE visible
20 Apr ? 21:24:50 45° SW 21:26:35 89° NW 21:31:40 10° NE visible
20 Apr ? 23:04:43 10° W 23:09:05 25° NNW 23:13:12 10° NNE visible
21 Apr ? 20:33:59 50° SE 20:34:32 52° ESE 20:39:29 10° NE visible
21 Apr ? 22:13:12 18° W 22:16:36 38° NW 22:21:15 10° NNE visible
22 Apr ? 19:43:04 28° ESE 19:43:04 28° ESE 19:47:00 10° NE visible
22 Apr ? 21:22:17 37° WSW 21:24:17 61° NW 21:29:16 10° NNE visible
22 Apr ? 23:03:17 10° WNW 23:07:05 20° NNW 23:10:42 10° NNE visible
23 Apr ? 18:52:07 14° E 18:52:07 14° E 18:53:50 10° ENE visible
23 Apr ? 20:31:20 64° S 20:32:06 79° SE 20:37:09 10° NE visible
23 Apr ? 22:10:33 13° W 22:14:28 28° NW 22:18:43 10° NNE visible
24 Apr ? 19:40:20 43° ESE 19:40:20 43° ESE 19:44:52 10° NE visible
24 Apr ? 21:19:32 26° W 21:22:01 42° NW 21:26:45 10° NNE visible
24 Apr ? 23:01:55 10° WNW 23:05:07 16° NNW 23:08:10 10° NNE visible
25 Apr ? 18:49:16 22° E 18:49:16 22° E 18:52:14 10° ENE visible
25 Apr ? 20:28:29 51° WSW 20:29:42 71° NW 20:34:42 10° NE visible
25 Apr ? 22:08:24 10° W 22:12:23 22° NNW 22:16:09 10° NNE visible
26 Apr ? 17:58:11 11° E 17:58:11 11° E 17:58:36 10° E visible
26 Apr ? 19:37:23 66° SE 19:37:32 67° ESE 19:42:32 10° NE visible
26 Apr ? 21:16:36 17° W 21:19:47 31° NW 21:24:10 10° NNE visible
26 Apr ? 23:00:32 10° NW 23:03:10 14° NNW 23:05:41 10° NNE visible
27 Apr ? 18:46:13 35° E 18:46:13 35° E 18:50:09 10° NE visible
27 Apr ? 20:25:25 33° W 20:27:21 49° NW 20:32:09 10° NNE visible
27 Apr ? 22:06:57 10° WNW 22:10:20 17° NNW 22:13:33 10° NNE visible
28 Apr ? 17:55:00 18° E 17:55:00 18° E 17:57:19 10° ENE visible
28 Apr ? 19:34:11 62° SW 19:35:04 83° NW 19:40:04 10° NE visible
28 Apr ? 21:13:26 10° W 21:17:37 24° NNW 21:21:32 10° NNE visible
28 Apr ? 22:59:03 10° NNW 23:01:12 13° N 23:03:19 10° NNE visible
